Weather History for Charlotte, NC

Change the Weather History Date:

Wednesday, July 25, 2012

  Actual Average Record
Temperature  
Mean Temperature 83 °F 79 °F  
Max Temperature 93 °F 89 °F 101 °F (2010)
Min Temperature 72 °F 68 °F 62 °F (1947)
Degree Days  
Heating Degree Days 0 0  
Month to date heating degree days 0 0  
Since 1 June heating degree days 0 3  
Since 1 July heating degree days 0 0  
Cooling Degree Days 18 14  
Month to date cooling degree days 439 343  
Year to date cooling degree days 1066 817  
Since 1 June cooling degree days 737 654  
Growing Degree Days 32 (Base 50)    
Moisture  
Dew Point 70 °F    
Average Humidity 72    
Maximum Humidity 93    
Minimum Humidity 50    
Precipitation  
Precipitation 0.05 in 0.13 in 2.34 in (1937)
Month to date precipitation 3.96 2.87  
Year to date precipitation 20.04 23.57  
Snow  
Snow 0.00 in 0.00 in 0.00 in ()
Month to date snowfall 0.0 0.0  
Since 1 June snowfall 0.0 0.0  
Since 1 July snowfall 0.0 0.0  
Snow Depth 0.00 in    
Sea Level Pressure  
Sea Level Pressure 29.94 in    
Wind  
Wind Speed 3 mph (West)    
Max Wind Speed 9 mph    
Max Gust Speed 16 mph    
Visibility 10 miles    
Events Rain    
T = Trace of Precipitation, MM = Missing Value Source: NWS Daily Summary

Daily Weather History Graph

Daily Weather History Graph

Search for Another Location

Airport:

Trip Planner

Search our weather history database for the weather conditions in past years. The results will help you decide how hot, cold, wet, or windy it might be!

Date:

Astronomy

Jul. 25, 2012 Rise Set
Actual Time 6:27 AM EDT 8:32 PM EDT
Civil Twilight 5:59 AM EDT 9:00 PM EDT
Nautical Twilight 5:24 AM EDT 9:35 PM EDT
Astronomical Twilight 4:47 AM EDT 10:12 PM EDT
Moon 1:12 PM EDT (7/25) No Moon Set
Length of Visible Light 15h 01m
Length of Day
14h 04m
Waxing Crescent, 42% of the Moon is Illuminated
Jul 25
Waxing Crescent
Jul 26
First Quarter
Aug 1
Full
Aug 9
Last Quarter
Aug 17
New

Hourly Weather History & Observations

Time (EDT) Temp. Heat Index Dew Point Humidity Pressure Visibility Wind Dir Wind Speed Gust Speed Precip Events Conditions
12:52 AM 75.0 °F - 69.1 °F 82% 29.93 in 10.0 mi Calm Calm - N/A   Partly Cloudy
1:52 AM 75.0 °F - 68.0 °F 79% 29.93 in 10.0 mi South 5.8 mph - N/A   Partly Cloudy
2:52 AM 73.9 °F - 68.0 °F 82% 29.91 in 10.0 mi Calm Calm - N/A   Partly Cloudy
3:52 AM 73.0 °F - 69.1 °F 87% 29.90 in 10.0 mi South 3.5 mph - N/A   Scattered Clouds
4:52 AM 72.0 °F - 69.1 °F 91% 29.91 in 10.0 mi Calm Calm - N/A   Scattered Clouds
5:52 AM 73.0 °F - 70.0 °F 90% 29.94 in 10.0 mi WNW 4.6 mph - N/A   Mostly Cloudy
6:52 AM 73.0 °F - 68.0 °F 84% 29.96 in 10.0 mi North 5.8 mph - 0.00 in Rain Light Rain
7:52 AM 72.0 °F - 68.0 °F 87% 29.97 in 10.0 mi NW 3.5 mph - 0.02 in Rain Light Rain
8:52 AM 72.0 °F - 69.1 °F 91% 30.00 in 10.0 mi North 5.8 mph - 0.01 in Rain Light Rain
9:52 AM 72.0 °F - 68.0 °F 87% 29.97 in 10.0 mi WNW 3.5 mph - 0.02 in Rain Light Rain
10:52 AM 78.1 °F - 70.0 °F 76% 29.97 in 10.0 mi North 6.9 mph - 0.00 in   Overcast
11:52 AM 82.9 °F 87.0 °F 70.0 °F 65% 29.96 in 10.0 mi NE 6.9 mph - N/A   Mostly Cloudy
12:52 PM 86.0 °F 89.4 °F 68.0 °F 55% 29.95 in 10.0 mi Calm Calm - N/A   Overcast
1:52 PM 88.0 °F 90.7 °F 66.9 °F 49% 29.95 in 10.0 mi SSW 4.6 mph - N/A   Overcast
2:52 PM 89.1 °F 95.0 °F 71.1 °F 55% 29.94 in 10.0 mi Calm Calm - N/A   Overcast
3:52 PM 90.0 °F 97.9 °F 73.0 °F 57% 29.93 in 10.0 mi NW 5.8 mph - N/A   Mostly Cloudy
4:52 PM 90.0 °F 97.9 °F 73.0 °F 57% 29.93 in 10.0 mi Calm Calm - N/A   Mostly Cloudy
5:52 PM 91.0 °F 99.3 °F 73.0 °F 55% 29.91 in 10.0 mi West 5.8 mph - N/A   Mostly Cloudy
6:52 PM 90.0 °F 96.4 °F 71.1 °F 54% 29.90 in 10.0 mi Calm Calm - N/A   Mostly Cloudy
7:52 PM 88.0 °F 94.7 °F 72.0 °F 59% 29.90 in 10.0 mi West 3.5 mph - N/A   Scattered Clouds
8:52 PM 84.9 °F 91.4 °F 73.0 °F 67% 29.91 in 10.0 mi SW 3.5 mph - N/A   Scattered Clouds
9:52 PM 82.9 °F 88.0 °F 72.0 °F 69% 29.92 in 10.0 mi SW 4.6 mph - N/A   Scattered Clouds
10:52 PM 81.0 °F 85.8 °F 73.0 °F 77% 29.92 in 10.0 mi South 4.6 mph - N/A   Scattered Clouds
11:52 PM 80.1 °F 83.8 °F 72.0 °F 76% 29.92 in 10.0 mi South 3.5 mph - N/A   Partly Cloudy